Wind_Speed
13 13 13 12 13 13 12 12 12 13 15 18 19 19 19 18 18 17 8 9 16 19 19 22 21 17 13 11 6 1 6 9 6 6 7 9 6 4 3 5 11 9 12 18 27
16 15 15 15 14 13 13 12 12 12 12 13 15 17 19 20 19 17 10 16 16 19 21 21 23 19 16 13 10 4 7 8 6 6 8 8 6 3 4 5 12 8 10 18 25
18 17 16 17 17 16 15 13 12 13 13 11 12 13 14 16 18 16 17 16 16 17 19 21 23 21 19 17 13 8 7 6 3 6 6 6 7 4 6 8 7 5 3 14 21
19 19 19 18 17 18 17 16 14 13 13 12 12 13 12 11 7 11 15 15 17 20 22 25 28 27 21 20 15 11 7 7 5 8 3 7 7 7 7 5 6 4 5 8 18
19 19 20 20 19 18 17 17 17 16 15 13 12 14 13 11 6 15 12 14 13 20 22 26 30 26 21 17 15 14 10 8 8 5 5 8 10 8 9 4 3 3 10 15 16
22 22 23 23 21 20 19 18 18 18 18 16 13 15 14 11 13 19 18 16 11 13 20 24 27 24 19 15 17 11 17 11 9 7 6 9 8 11 11 8 4 3 8 17 16
25 26 26 26 25 24 22 20 19 18 19 20 17 17 14 7 12 14 17 13 15 10 16 19 22 28 14 16 17 15 11 14 12 11 9 10 11 12 13 10 10 4 5 15 18
28 28 28 28 27 26 25 24 22 20 19 20 21 21 17 13 16 16 18 22 17 17 16 19 25 26 18 17 16 16 16 17 15 16 13 13 11 15 13 13 9 11 7 9 17
31 30 31 30 30 28 27 27 25 23 21 20 21 23 23 18 19 20 20 23 23 22 24 24 26 25 26 17 18 20 20 21 16 18 13 15 12 10 11 11 16 14 11 9 13
33 32 32 34 33 30 28 28 27 27 24 22 22 19 22 15 17 24 25 26 28 29 29 30 28 27 31 31 30 24 25 20 21 18 18 15 16 11 16 16 19 17 16 16 11
34 34 33 34 35 34 31 28 26 28 26 23 20 15 22 19 24 23 29 30 30 32 33 34 33 44 37 33 30 21 19 23 21 14 17 19 18 14 15 19 20 20 18 18 16
37 35 34 35 33 32 32 28 26 28 30 24 24 25 27 22 23 27 32 37 38 39 29 29 44 32 30 30 31 30 23 25 21 18 17 18 18 15 18 20 22 22 18 20 20
39 37 35 35 34 31 28 27 23 26 31 30 29 31 29 33 29 30 34 34 39 38 40 33 18 31 31 33 33 33 33 26 23 17 20 17 21 20 17 17 21 23 19 21 24
39 39 37 33 32 30 28 24 18 18 17 18 27 26 29 36 41 35 32 37 32 39 35 34 27 28 33 35 35 37 32 25 22 19 19 17 23 24 24 21 21 22 24 21 22
37 36 35 35 29 27 25 20 14 8 7 4 12 16 24 34 21 41 36 40 29 29 40 35 34 31 35 35 31 34 25 25 28 26 24 28 18 26 18 25 25 23 24 25 21
37 38 35 31 29 24 22 18 7 4 10 5 6 7 10 25 18 18 38 39 32 30 32 35 19 31 31 26 29 21 25 23 22 27 27 36 32 30 28 26 25 25 23 25 25
34 35 35 34 26 22 18 15 6 13 2 2 4 6 9 13 25 20 36 45 40 38 42 33 39 26 26 30 26 33 29 17 18 23 21 29 35 37 16 26 26 25 26 26 26
34 34 32 29 28 21 14 6 16 6 8 15 11 14 11 14 19 27 25 43 45 37 27 34 31 41 35 35 31 39 38 24 20 15 21 26 25 40 33 28 9 28 25 22 29
35 33 29 25 22 20 12 12 17 8 11 17 19 10 14 8 10 17 29 32 44 41 35 33 38 30 29 36 33 37 44 37 21 16 13 26 32 25 20 27 31 27 22 29 26
34 31 25 22 20 15 6 10 9 12 18 12 13 6 6 7 6 11 21 21 28 44 30 29 26 29 34 29 33 26 33 35 36 22 20 17 24 25 18 33 26 28 31 23 28
30 24 24 21 19 9 7 10 16 14 16 11 12 14 13 11 6 8 10 9 21 32 32 26 23 29 27 43 42 39 31 42 30 30 13 14 19 23 24 24 27 26 29 29 29
27 14 23 21 9 10 9 13 15 14 13 15 18 18 14 11 8 6 8 3 11 8 22 28 21 23 37 33 34 37 36 41 32 32 39 26 17 8 6 14 22 22 23 26 28
29 22 22 16 7 11 11 13 13 12 15 10 10 14 13 12 7 6 5 3 5 4 19 20 27 26 20 25 33 40 41 38 39 26 31 26 9 12 10 8 14 18 18 21 27
30 12 13 11 14 13 13 8 12 12 11 13 15 12 15 18 16 7 4 4 6 2 12 23 19 36 30 27 32 37 43 41 43 42 32 34 22 21 11 8 7 16 15 10 13
26 11 18 12 10 12 11 13 11 12 9 12 11 10 6 8 16 15 12 9 7 7 1 6 22 17 23 13 9 20 41 42 45 43 44 31 30 27 16 14 9 10 7 9 12
21 16 21 19 17 10 11 9 10 10 14 13 11 16 15 6 5 8 3 7 8 5 3 2 10 12 20 16 13 16 21 27 37 43 41 38 35 22 20 23 28 22 18 17 16
24 21 17 20 12 11 8 11 13 16 7 8 14 17 14 13 12 12 13 14 14 12 7 6 8 9 22 19 18 24 32 30 30 32 32 38 31 28 29 25 21 29 31 29 25
Wind_Direction
307 307 307 304 300 298 296 294 292 286 279 270 266 261 260 261 261 261 256 226 238 225 216 213 215 218 234 244 248 280 190 185 158 142 131 141 114 95 118 133 136 125 157 168 158
311 306 304 302 301 298 295 289 288 291 289 283 274 267 260 258 258 256 237 238 238 227 221 213 213 210 219 228 233 190 186 169 177 159 138 167 131 67 97 139 159 130 161 172 169
316 311 304 300 297 296 294 292 287 283 284 282 280 274 266 260 262 258 240 240 238 226 211 204 203 207 209 220 227 214 175 201 196 168 158 173 163 165 129 153 176 156 153 179 183
318 314 310 305 299 294 291 290 289 286 281 275 272 272 271 260 243 251 237 233 227 220 210 202 195 195 204 219 217 208 201 170 167 170 164 188 191 178 148 145 168 171 191 179 189
329 325 318 314 310 301 294 287 281 277 275 272 266 264 267 263 241 238 220 216 219 215 213 206 196 190 201 216 216 209 196 191 212 207 236 208 202 189 188 177 113 95 165 160 189
333 329 325 321 317 313 308 299 286 276 272 271 269 264 263 262 232 238 232 222 216 206 206 209 204 190 206 216 207 220 196 206 227 221 216 180 194 194 204 208 190 91 161 159 179
330 326 323 320 317 314 311 305 299 286 272 267 263 264 260 233 238 234 219 216 217 210 204 206 204 200 201 217 216 218 214 214 221 212 200 187 201 202 217 218 222 210 163 169 174
326 322 317 314 311 310 309 305 302 296 287 268 261 259 260 238 238 239 219 209 199 192 189 203 208 205 209 214 219 216 224 223 220 205 205 205 212 212 210 214 223 225 217 188 188
323 320 316 311 308 306 303 299 298 295 290 284 265 258 261 249 237 225 215 214 208 202 196 200 205 205 212 221 214 211 212 212 197 208 208 205 207 208 207 221 220 221 230 223 203
321 318 316 312 308 305 302 297 292 288 286 282 274 259 248 236 224 218 214 207 207 206 204 202 201 203 209 210 213 206 213 209 207 207 209 222 224 230 226 217 216 228 228 231 227
324 322 319 314 309 306 302 300 294 285 279 272 260 259 242 238 227 214 211 204 202 208 205 198 197 206 208 208 212 216 216 216 210 198 218 233 237 235 236 224 215 224 230 231 224
326 327 327 323 319 313 307 304 298 286 277 266 261 254 243 236 216 205 200 202 201 201 190 193 216 211 210 212 213 217 221 220 216 215 227 233 239 236 236 225 212 214 229 226 219
328 328 327 325 324 320 314 307 302 292 288 271 260 255 243 234 217 212 205 199 210 195 199 205 220 208 210 210 214 217 219 218 222 229 236 239 244 235 235 228 216 219 226 219 218
336 339 335 328 318 322 323 315 310 296 294 277 260 249 237 222 225 219 213 200 199 206 207 218 215 202 206 213 213 221 222 225 228 228 234 225 252 234 232 230 222 221 214 224 218
339 342 341 339 333 325 320 319 310 301 273 223 233 224 224 206 216 221 214 196 205 203 203 214 211 212 211 216 212 224 221 229 231 236 249 243 248 244 227 228 226 222 222 215 224
337 337 340 339 336 329 315 316 299 235 238 227 220 217 216 200 205 196 208 204 208 215 217 219 226 216 223 220 216 220 215 225 231 233 241 238 239 250 236 231 230 228 225 216 216
339 338 337 335 335 328 319 304 258 232 342 287 213 241 220 214 204 201 196 198 200 202 214 219 221 225 216 215 214 208 199 201 217 225 237 235 235 235 239 236 235 224 225 217 216
340 340 337 334 331 332 314 284 253 272 279 290 303 287 230 205 211 212 206 207 206 208 207 209 220 215 212 211 206 203 201 205 212 219 228 225 239 240 239 229 222 224 221 213 213
341 340 341 341 337 331 323 256 270 314 314 316 303 274 215 233 195 212 210 217 215 205 215 206 223 208 209 203 199 205 212 211 241 226 262 231 230 244 233 231 229 226 216 216 218
344 343 347 344 344 340 336 274 288 306 309 309 295 292 257 250 255 218 199 218 211 206 220 225 222 213 208 203 209 209 208 212 223 240 242 234 237 234 233 229 222 220 218 212 209
346 352 345 345 350 0 323 293 307 310 309 283 264 278 280 291 251 221 207 221 180 196 213 206 213 206 197 206 202 201 210 215 219 221 227 237 244 245 239 231 219 220 217 213 210
353 1 342 351 8 348 323 322 319 320 309 291 260 260 276 270 269 222 203 175 192 227 210 204 211 211 209 212 208 210 207 204 211 213 234 257 243 188 212 221 219 216 219 210 209
351 350 352 356 356 341 319 321 323 320 318 309 287 241 255 246 260 222 205 238 112 109 191 199 213 210 208 209 211 212 211 211 213 222 219 220 228 226 206 167 192 199 207 213 215
350 351 342 2 345 335 324 316 317 327 315 336 318 312 253 248 238 244 251 275 207 28 176 201 209 215 214 206 208 212 213 213 214 223 228 224 229 226 220 222 221 202 205 217 221
340 325 333 325 320 321 323 307 307 321 318 322 298 344 343 234 243 247 257 282 286 251 339 187 212 224 225 220 205 213 214 213 218 223 227 231 228 226 221 227 212 212 222 229 222
324 322 321 324 335 321 318 296 300 311 317 312 295 314 333 317 243 312 325 271 257 270 295 243 205 224 230 227 226 226 216 214 222 226 233 236 239 232 245 248 247 246 256 250 246
314 319 310 318 315 314 308 300 295 315 314 306 313 312 315 305 305 282 279 269 257 269 264 261 223 236 227 224 241 246 224 224 226 223 224 233 238 238 242 247 251 230 241 237 240
Height
3153 3151 3149 3148 3146 3144 3143 3142 3140 3139 3138 3137 3137 3138 3138 3138 3138 3138 3141 3142 3142 3144 3149 3153 3156 3160 3162 3163 3163 3163 3168 3166 3167 3168 3170 3168 3169 3168 3168 3168 3168 3169 3170 3172 3173
3150 3148 3146 3144 3143 3141 3140 3139 3137 3136 3135 3134 3133 3133 3134 3134 3134 3135 3138 3137 3139 3141 3145 3149 3153 3158 3160 3162 3162 3163 3165 3166 3167 3168 3169 3169 3171 3169 3170 3169 3170 3171 3172 3174 3175
3146 3145 3143 3141 3140 3138 3137 3136 3134 3133 3132 3131 3130 3129 3129 3130 3131 3131 3132 3134 3136 3138 3142 3146 3150 3156 3158 3159 3161 3162 3165 3165 3166 3166 3168 3170 3171 3171 3172 3172 3171 3171 3172 3174 3176
3143 3141 3139 3138 3136 3135 3133 3132 3131 3130 3129 3128 3127 3126 3126 3127 3130 3125 3126 3129 3131 3134 3138 3141 3145 3150 3155 3156 3159 3161 3162 3163 3165 3165 3168 3170 3171 3171 3172 3174 3172 3171 3172 3174 3177
3140 3138 3136 3134 3132 3130 3129 3128 3127 3125 3124 3124 3123 3122 3122 3123 3124 3122 3124 3126 3127 3131 3135 3138 3142 3148 3153 3155 3157 3158 3161 3162 3163 3164 3166 3168 3170 3172 3172 3172 3171 3171 3172 3173 3178
3138 3135 3133 3130 3128 3126 3125 3123 3121 3120 3119 3119 3119 3118 3119 3120 3119 3119 3121 3123 3125 3128 3132 3136 3141 3147 3151 3153 3155 3157 3157 3160 3162 3164 3165 3167 3168 3169 3171 3171 3172 3172 3173 3174 3177
3135 3132 3129 3126 3123 3122 3120 3118 3117 3115 3114 3114 3115 3114 3114 3117 3115 3115 3118 3121 3124 3126 3130 3135 3140 3144 3148 3151 3151 3155 3157 3158 3160 3162 3165 3166 3168 3167 3168 3169 3170 3172 3173 3173 3176
3132 3128 3125 3122 3119 3117 3115 3113 3112 3110 3108 3108 3108 3108 3108 3110 3111 3112 3114 3117 3120 3124 3128 3132 3135 3141 3144 3146 3147 3151 3155 3156 3157 3159 3162 3164 3162 3165 3165 3167 3168 3170 3172 3173 3174
3126 3123 3119 3116 3113 3111 3109 3107 3106 3104 3103 3102 3103 3103 3103 3104 3105 3107 3110 3114 3117 3120 3123 3128 3130 3136 3143 3143 3147 3148 3149 3152 3154 3156 3159 3161 3161 3163 3164 3164 3166 3168 3170 3172 3173
3120 3117 3113 3109 3106 3104 3102 3100 3099 3098 3097 3096 3096 3100 3097 3097 3098 3101 3104 3108 3111 3116 3119 3121 3125 3131 3134 3137 3136 3141 3146 3146 3149 3153 3156 3158 3159 3161 3162 3162 3164 3165 3168 3170 3172
3113 3110 3106 3101 3098 3096 3095 3093 3094 3090 3090 3091 3090 3090 3089 3089 3093 3095 3099 3102 3106 3111 3111 3115 3120 3114 3124 3132 3138 3141 3144 3145 3148 3150 3153 3154 3156 3158 3159 3159 3162 3161 3164 3167 3170
3106 3104 3100 3095 3091 3088 3085 3085 3084 3082 3079 3081 3081 3082 3083 3084 3086 3088 3092 3096 3098 3100 3111 3114 3104 3118 3126 3130 3133 3137 3140 3142 3145 3147 3149 3150 3151 3153 3155 3154 3157 3159 3159 3163 3167
3101 3098 3096 3090 3086 3083 3080 3078 3077 3073 3069 3071 3071 3071 3075 3077 3080 3080 3084 3090 3092 3098 3099 3102 3108 3115 3119 3123 3126 3129 3132 3138 3142 3144 3145 3147 3146 3148 3150 3151 3153 3155 3157 3160 3163
3093 3091 3088 3086 3084 3078 3075 3073 3071 3068 3066 3059 3059 3058 3061 3066 3068 3072 3079 3086 3089 3092 3098 3101 3107 3107 3111 3114 3121 3123 3129 3135 3139 3141 3139 3141 3137 3138 3143 3145 3147 3150 3152 3155 3158
3090 3087 3083 3078 3077 3075 3071 3069 3068 3068 3065 3053 3049 3048 3050 3056 3064 3061 3072 3079 3083 3086 3093 3090 3096 3102 3104 3106 3115 3119 3128 3131 3135 3137 3139 3135 3137 3131 3135 3139 3141 3144 3146 3150 3153
3087 3083 3079 3076 3073 3070 3067 3065 3066 3070 3055 3050 3046 3047 3049 3049 3055 3057 3063 3072 3081 3085 3086 3089 3093 3097 3098 3106 3110 3117 3123 3127 3130 3132 3126 3125 3129 3123 3127 3131 3136 3140 3142 3144 3148
3083 3079 3075 3071 3070 3067 3064 3063 3067 3056 3048 3048 3046 3046 3047 3050 3051 3052 3055 3059 3062 3071 3073 3083 3085 3089 3094 3100 3104 3110 3116 3117 3120 3116 3105 3118 3120 3116 3121 3125 3128 3133 3137 3139 3143
3079 3074 3070 3066 3063 3062 3061 3063 3060 3050 3048 3044 3042 3040 3042 3043 3044 3048 3050 3052 3057 3063 3068 3073 3074 3076 3081 3087 3093 3097 3102 3098 3099 3097 3104 3112 3103 3106 3116 3121 3122 3126 3133 3135 3138
3076 3071 3065 3062 3059 3057 3058 3058 3053 3050 3048 3045 3040 3039 3039 3040 3040 3042 3043 3047 3050 3055 3060 3062 3065 3069 3074 3080 3087 3089 3091 3099 3096 3097 3098 3095 3100 3107 3108 3110 3114 3120 3124 3130 3133
3071 3067 3062 3058 3055 3054 3056 3054 3052 3049 3047 3047 3045 3041 3039 3038 3038 3037 3037 3036 3040 3051 3055 3055 3060 3062 3070 3076 3079 3081 3091 3094 3092 3091 3091 3090 3093 3094 3097 3101 3106 3112 3119 3124 3129
3068 3064 3060 3056 3053 3056 3055 3053 3049 3047 3046 3045 3043 3040 3039 3037 3035 3033 3033 3031 3034 3040 3042 3052 3054 3055 3062 3057 3064 3075 3078 3082 3088 3087 3084 3087 3084 3088 3091 3096 3099 3105 3112 3118 3124
3066 3065 3057 3054 3058 3054 3053 3049 3045 3045 3043 3039 3039 3038 3037 3035 3033 3032 3031 3029 3028 3032 3038 3047 3048 3047 3049 3057 3063 3067 3070 3073 3075 3080 3083 3082 3081 3083 3087 3090 3095 3101 3107 3113 3120
3063 3059 3055 3052 3054 3051 3050 3047 3044 3042 3039 3035 3032 3032 3032 3033 3033 3030 3029 3027 3026 3030 3034 3038 3039 3044 3047 3053 3055 3055 3061 3067 3073 3074 3071 3077 3080 3081 3086 3087 3092 3097 3102 3106 3111
3061 3060 3057 3051 3049 3049 3045 3045 3043 3040 3037 3035 3030 3028 3027 3028 3029 3027 3028 3026 3025 3025 3026 3031 3035 3034 3032 3040 3047 3050 3052 3059 3063 3064 3065 3068 3077 3081 3085 3088 3090 3092 3097 3100 3103
3058 3058 3053 3052 3048 3044 3042 3041 3040 3038 3036 3034 3030 3027 3025 3024 3024 3025 3025 3025 3026 3024 3027 3028 3031 3034 3035 3035 3037 3040 3045 3050 3051 3058 3058 3067 3071 3078 3082 3086 3089 3091 3095 3097 3100
3057 3054 3048 3045 3042 3042 3041 3039 3037 3035 3034 3032 3029 3024 3024 3022 3021 3020 3020 3025 3024 3025 3026 3027 3030 3031 3031 3034 3036 3038 3040 3042 3047 3052 3057 3062 3066 3075 3079 3081 3082 3086 3088 3092 3096
3051 3049 3046 3043 3041 3039 3039 3036 3034 3033 3031 3029 3028 3025 3023 3020 3019 3018 3018 3019 3021 3022 3025 3027 3029 3031 3028 3032 3035 3032 3032 3038 3044 3048 3053 3053 3065 3070 3071 3074 3076 3078 3082 3087 3090